星链-31856 (STARLINK-31856 )

导读 | 豆包AI

STARLINK-31856是美国太空探索技术公司(SpaceX)星链互联网星座的一颗卫星,于北京时间2024年6月5日发射入轨,属于Starlink Group批次组网卫星。该卫星旨在为全球提供高速低延迟宽带互联网服务,尤其覆盖偏远地区,延续了星链星座大规模组网、推进全球网络覆盖的部署进程。

基本信息
目录编号:
59960
目录名称:
STARLINK-31856
国际标识:
2024-107R
轨道中心:
EARTH
卫星名称:
星链-31856
卫星全名:
星链-31856 (STARLINK-31856 )
卫星状态:
在轨 (已飞行648 天)
发射日期:
2024-06-05 UTC
国别 :
美国 (US)
星等 :
--
轨道信息
数据来源 国际轨道数据
星历时间: 2026-03-15T13:09:47+0800
11小时前
查看轨道信息
半长轴: 6853.307km
偏心率: 0.000224
轨道倾角: 53.162°
近地点辐角 160.234°
升交点赤经 39.779°
平近点角 199.874°
近地点: 473.634km
远地点: 476.706km
周期: 94.104分钟
每日圈数: 15.302154
详细信息
固有亮度:
5
最大亮度:
1.5
卫星平台:
Starlink v2.0 mini
覆盖范围:
全球
运营商:
太空探索技术公司
运营商所在国:
美国
制造商(研发单位):
太空探索技术公司
制造商所在国:
美国
使用方式:
暂无
卫星简介
星链(Starlink)计划是由太空探索技术公司(SpaceX)提出的一个巨型低轨卫星互联网星座项目,计划在2019年至2024年间在太空搭建由约1.2万颗卫星组成的“星链”网络,其中1584颗将部署在地球上空550千米处的近地轨道,并从2020年开始工作。该卫星仍在工作。
2D轨道图
3D轨道图
轨道高度分析图
轨道倾角分析图
轨道综合分析图
查看轨道综合分析图